Погода в Бобровке

Россия / Курская область     52°12′33″N   36°26′21″E
темп.,
°C
ветер,
м/с
пор.,
м/с
влажн.,
%
обл.,
%
осадки,
мм/ч
давл.,
гПа
погр.,
м
3 августа, вт
вт300:00+18юз368890 0.6 1008134
03:00+17зюз3894100 0.8 1009204
06:00+17з379532 0.0 1010214
09:00+20зсз457998 0.0 1011694
12:00+22з5564100 0.1 10121250
15:00+21зсз5562100 0.2 10121226
18:00+22зсз465916 0.0 10121379
21:00+17ссз33772 0.1 101443
4 августа, ср
ср400:00+16ссз23782 0.0 101527
03:00+16сз237491 0.0 101558
06:00+17сз237185 0.0 101675
09:00+19сз335951 0.0 1017507
12:00+22зсз33515 0.0 10171291
15:00+21сз3548100 0.0 1017280
18:00+21ссз345187 0.0 1018743
21:00+16св11660 0.0 101811
5 августа, чт
чт500:00+15юв2266100 0.0 101811
03:00+14ююв2265100 0.0 101811
06:00+14ююв226753 0.0 101935
09:00+20ююв354942 0.0 1018401
12:00+25ю5637100 0.0 10171430
15:00+27ю4733100 0.0 10152593
18:00+23юв2345100 0.0 101365
21:00+17ссв4680100 0.3 101499
6 августа, пт
пт600:00+19в4969100 0.1 1013164
03:00+19вюв2360100 0.1 101246
06:00+18ююв386298 0.1 1012177
09:00+23ю51045100 0.1 1011431
12:00+28ю5833100 0.0 10101231
15:00+32ю572610 0.0 10082231
18:00+31з223789 0.0 100774
21:00+24ю4850100 0.0 1008154
7 августа, сб
сб700:00+21вюв4470100 0.9 100850
03:00+20ююв4116398 0.9 1008170
06:00+19ююв346460 0.3 100966
09:00+25ююв4745100 0.3 1009432
12:00+25ю2251100 0.0 1009273
15:00+28ююв6844100 0.4 10091363
18:00+25в3649100 0.4 1008154
21:00+24в51348100 0.5 1008269